sat.trackr.live / text

‹ back to catalog

STARLINK-3203

NORAD 49761 · 2021-115AP

PAYLOAD ACTIVE UNKNOWN

§ Identity

Operator
Country
US
Launch date
2021-12-02
Launch site
AFETR
Launch vehicle
Mass (kg)
RCS (m²)

Purposes: comms

External: N2YO · Heavens-Above · Gunter

§ Orbital elements

Epoch: 2026-05-25T01:34:25.287744Z

Period
95.44 min
Inclination
53.2136°
Eccentricity
0.0001152
Mean motion
15.08834551 rev/d
Perigee alt
539.0 km
Apogee alt
540.6 km
Semi-major
6,917.9 km
B*
1.5614e-5
RAAN
156.2555°
Arg perigee
76.6085°
Mean anomaly
283.5036°
Rev number
24,720

§ Raw data

STARLINK-32031 49761U 21115AP  26145.06557046 -.00000039  00000+0  15614-4 0  99912 49761  53.2136 156.2555 0001152  76.6085 283.5036 15.08834551247201

JSON: /api/v1/satellites/49761 · /tle

For live sub-satellite position, see the globe view (requires WebGL).

§ Visibility from observer

Set your observer location to see the next 7 days of passes ≥ 10°. The values pass through the URL so the page stays shareable.

No JS? Fill the form by hand. The geolocation button needs JavaScript.